www.pogodaiklimat.ru
ПОГОДА в Любляна аэропорту

Архив погоды в Любляна аэропорту (Словения)

Время
(UTC), дата
01 29.01
02 29.01
03 29.01
04 29.01
05 29.01
06 29.01
07 29.01
08 29.01
09 29.01
10 29.01
11 29.01
12 29.01
13 29.01
14 29.01
15 29.01
16 29.01
17 29.01
18 29.01
19 29.01
20 29.01
21 29.01
22 29.01
23 29.01
00 30.01
01 30.01
02 30.01
03 30.01
04 30.01
05 30.01
06 30.01
07 30.01
08 30.01
09 30.01
10 30.01
11 30.01
12 30.01
13 30.01
14 30.01
15 30.01
16 30.01
17 30.01
18 30.01
19 30.01
20 30.01
21 30.01
22 30.01
23 30.01
00 31.01
01 31.01
02 31.01
03 31.01
04 31.01
05 31.01
06 31.01
07 31.01
08 31.01
09 31.01
10 31.01
11 31.01
12 31.01
13 31.01
14 31.01
15 31.01
16 31.01
17 31.01
18 31.01
19 31.01
20 31.01
21 31.01
22 31.01
23 31.01
00 1.02
01 1.02
02 1.02
03 1.02
04 1.02
05 1.02
06 1.02
07 1.02
08 1.02
09 1.02
10 1.02
11 1.02
12 1.02
13 1.02
14 1.02
15 1.02
16 1.02
17 1.02
18 1.02
19 1.02
20 1.02
21 1.02
22 1.02
23 1.02
00 2.02
01 2.02
02 2.02
03 2.02
04 2.02
05 2.02
06 2.02
07 2.02
08 2.02
09 2.02
10 2.02
11 2.02
12 2.02
13 2.02
14 2.02
15 2.02
16 2.02
17 2.02
18 2.02
19 2.02
20 2.02
21 2.02
22 2.02
23 2.02
00 3.02
01 3.02
02 3.02
03 3.02
04 3.02
05 3.02
06 3.02
07 3.02
08 3.02
09 3.02
10 3.02
11 3.02
12 3.02
13 3.02
14 3.02
15 3.02
16 3.02
17 3.02
18 3.02
19 3.02
20 3.02
21 3.02
22 3.02
23 3.02
00 4.02
01 4.02
02 4.02
03 4.02
04 4.02
05 4.02
06 4.02
07 4.02
08 4.02
09 4.02
10 4.02
11 4.02
12 4.02
13 4.02
14 4.02
15 4.02
16 4.02
17 4.02
18 4.02
19 4.02
20 4.02
21 4.02
22 4.02
23 4.02
00 5.02
01 5.02
Ветер
(напр.,м/с)
Видим. Явления Облачность Т
(С)
Тd
(С)
f
(%)
Тe
(С)
Тes
(С)
Комфортность P
(гПа)
Po
(гПа)
Тmin
(С)
Tmax
(С)
R
(мм)
R24
(мм)
S
(см)
СЗ 1
{1}
5000 м в посл. час снег 10/10 600 м
[Sc]
-1.5 -2.3 94 -4 -4 прохладно 1026.7 978.7
ЮЗ 1
{1}
5000 м дымка 10/10 600 м
[Sc]
-1.4 -2.1 95 -4 -4 по сезону 1026.8 978.9
З 1
{1}
5000 м дымка {снег} 10/10 600 м
[Sc]
-1.4 -2.2 94 -4 -4 по сезону 1027.2 979.2
штиль 0
{1}
5000 м дымка 10/10 600 м
[Sc]
-1.4 -2.1 95 -3 -3 по сезону 1027.4 979.4
З 1
{1}
5000 м дымка 10/10 480 м
[Sc]
-1.4 -2.1 95 -4 -4 по сезону 1027.3 979.3
штиль 0
{1}
6000 м дымка {снег} 10/10 600 м
[Sc]
-1.4 -2.0 96 -3 -3 по сезону 1027.7 979.7 -1.6 0.0 0.0 9
СЗ 1
{1}
6000 м дымка 10/10 600 м
[Sc]
-1.4 -2.0 96 -4 -4 по сезону 1028.2 980.2
З 2
{3}
8000 м дымка 10/10 600 м
[Sc]
-0.6 -1.6 93 -4 -4 по сезону 1028.3 980.4
СЗ 1
{1}
8000 м дымка 10/10 600 м
[Sc]
0.0 -1.7 88 -2 -2 по сезону 1028.1 980.3
штиль 0
{1}
10 км 10/10 600 м
[Sc]
+0.3 -2.2 83 -1 -1 по сезону 1028.1 980.4
С 1
{1}
10 км 10/10 600 м
[Sc]
+0.4 -2.6 80 -1 -1 по сезону 1027.8 980.1
В 1
{1}
10 км 10/10 600 м
[Sc]
+0.5 -2.5 80 -1 -1 по сезону 1027.1 979.4
В 2
{2}
15 км 10/10 600 м
[Sc]
+0.7 -2.7 78 -3 -3 по сезону 1026.5 978.9
В 1
{2}
15 км 10/10 600 м
[Sc]
+0.8 -2.9 76 -1 -1 по сезону 1026.2 978.6
СВ 1
{2}
15 км 10/10 600 м
[Sc]
+0.7 -2.7 78 -1 -1 по сезону 1025.9 978.4
штиль 0
{2}
15 км 10/10 600 м
[Sc]
+0.4 -2.5 81 -1 -1 по сезону 1026.0 978.4
ЮЗ 1
{2}
15 км 10/10 600 м
[Sc]
0.0 -2.5 83 -2 -2 по сезону 1026.1 978.4
штиль 0
{1}
15 км 10/10 600 м
[Sc]
+0.1 -2.8 81 -1 -1 по сезону 1026.2 978.5 +1.2 9
СЗ 1
{1}
15 км 10/10 600 м
[Sc]
-0.2 -2.3 86 -2 -2 по сезону 1026.1 978.4
ЮЗ 1
{2}
15 км 10/10 600 м
[Sc]
-0.4 -2.6 85 -2 -2 по сезону 1026.1 978.3
З 1
{2}
15 км 10/10 600 м
[Sc]
-0.3 -3.7 78 -2 -2 по сезону 1026.3 978.5
ЮЗ 1
{2}
15 км 10/10 600 м
[Sc]
-0.6 -3.1 83 -3 -3 по сезону 1026.2 978.4
С 1
{2}
15 км 10/10 600 м
[Sc]
-0.8 -3.3 83 -3 -3 по сезону 1025.5 977.7
З 1
{1}
15 км 10/10 600 м
[Sc]
-1.1 -3.3 85 -3 -3 по сезону 1025.0 977.2
С 1
{1}
15 км 10/10 1500 м
[Sc]
-1.5 -3.8 84 -4 -4 по сезону 1024.4 976.6
СЗ 1
{1}
15 км 10/10 1500 м
[Sc]
-2.2 -3.9 88 -4 -4 по сезону 1023.9 975.9
З 1
{3}
15 км 6/6 450 м
[Sc]
-4.1 -5.2 92 -7 -7 по сезону 1023.6 975.3
СЗ 1
{1}
15 км 1/1 450 м
[Sc]
-5.4 -6.1 95 -8 -8 по сезону 1023.0 974.5
С 1
{1}
15 км местами туман поземный 1/1 450 м
[Sc]
-7.8 -8.9 92 -10 -10 по сезону 1022.9 974.0
З 1
{2}
50 км 3/0
[Ac lent Ci fib]
-6.8 -7.5 95 -9 -9 прохладно 1022.9 974.1 -7.9 9
З 2
{3}
50 км 5/0
[Ac cast Ci sp]
-7.5 -8.3 94 -12 -12 прохладно 1023.2 974.3
СЗ 1
{2}
50 км 8/0
[Ac lent Cs]
-5.4 -6.2 94 -8 -7 по сезону 1022.6 974.1
З 2
{2}
50 км 9/0
[Ac As Cs]
-3.7 -5.2 89 -8 -6 холодно 1021.5 973.4
СЗ 1
{2}
50 км 6/0
[Ac cast Ci sp]
-2.4 -5.0 82 -5 -3 по сезону 1020.6 972.7
В 1
{2}
50 км 6/0
[Ac lent Ci sp]
-1.0 -4.3 78 -3 +1 по сезону 1018.9 971.4
В 1
{2}
50 км 1/0
[Ci sp]
-0.4 -4.5 74 -2 +3 по сезону 1017.4 970.1
штиль 0
{1}
50 км 1/0
[Ci sp]
+1.2 -4.2 67 +1 +4 по сезону 1016.1 969.1
В 1
{2}
50 км 1/0
[Ac trans Ci fib]
+2.0 -4.5 62 +1 +2 по сезону 1015.6 968.7
штиль 0
{1}
50 км 1/0
[Ci fib]
+2.4 -4.5 60 +2 +2 по сезону 1014.9 968.1
З 1
{2}
50 км ясно -1.8 -4.0 85 -4 -4 по сезону 1015.8 968.3
З 3
{4}
50 км 1/0
[Ac trans]
-3.4 -4.8 90 -9 -9 прохладно 1016.6 968.7
З 1
{2}
50 км 1/1 2000 м
[Sc Ac trans]
-4.3 -5.3 93 -7 -7 прохладно 1017.2 969.1 +2.9 9
СЗ 1
{2}
50 км 1/1 2000 м
[Sc]
-4.6 -5.6 93 -7 -7 прохладно 1017.9 969.8
З 2
{3}
40 км 1/1 1500 м
[Sc]
-5.5 -5.9 97 -10 -10 прохладно 1018.8 970.5
СЗ 2
{6}
40 км 1/1 1500 м
[Sc]
-3.4 -5.2 87 -8 -8 прохладно 1019.3 971.3
З 1
{3}
40 км 1/1 1500 м
[Sc]
-3.6 -4.9 91 -6 -6 по сезону 1019.6 971.6
Ю 1
{4}
40 км 1/1 1500 м
[Sc]
-2.2 -4.4 85 -4 -4 по сезону 1019.7 971.9
СЗ 7
{9}
40 км 1/1 1500 м
[Sc]
+1.7 -6.3 55 -4 -4 по сезону 1018.8 971.7
З 5
{9}
40 км 1/1 1500 м
[Sc]
+1.7 -5.6 58 -3 -3 по сезону 1019.0 971.9
СЗ 8
{12}
40 км 1/1 1500 м
[Sc]
+5.2 -7.6 39 0 0 тепло 1019.0 972.5
З 3
{8}
40 км 1/1 1500 м
[Sc]
+3.5 -7.6 44 0 0 тепло 1019.2 972.4
З 4
{6}
40 км 1/1 1500 м
[Sc]
+2.1 -7.2 50 -2 -2 тепло 1020.0 972.9
Ю 3
{5}
40 км 1/1 1500 м
[Sc]
-0.8 -6.3 66 -5 -5 по сезону 1020.8 973.2
ЮЗ 1
{4}
50 км 1/1 1500 м
[Cu hum]
-1.2 -6.7 66 -3 -3 по сезону 1021.9 974.1 -6.8 9
З 2
{6}
50 км 1/1 1500 м
[Cu hum]
-2.5 -6.3 75 -6 -6 по сезону 1022.9 974.9
З 3
{4}
50 км 1/1 1500 м
[Cu hum]
-1.4 -6.3 69 -6 -5 по сезону 1023.0 975.2
В 3
{4}
50 км 1/1 1500 м
[Cu hum]
+1.2 -6.6 56 -3 -0 по сезону 1022.9 975.5

{3}
50 км н/о +2.4 -4.5 60 -0 +3 по сезону 1023.0 975.8
СВ 3
{4}
50 км ясно +3.9 -3.6 58 +1 +4 тепло 1022.5 975.6
СВ 2
{3}
50 км ясно +4.9 -4.1 52 +3 +7 по сезону 1021.7 975.0
В 2
{3}
50 км 1/0
[Ci fib]
+6.5 -4.0 47 +5 +8 тепло 1021.1 974.7
В 1
{2}
50 км 1/0
[Ac lent Ci fib]
+8.3 -5.8 36 +8 +10 тепло 1020.5 974.4
штиль 0
{3}
50 км 3/0
[Ac und Ci fib]
+7.1 -5.5 40 +7 +7 тепло 1020.8 974.5
СЗ 1
{3}
50 км 3/0
[Ac lent Ci fib]
+3.1 -4.8 56 +2 +2 тепло 1021.5 974.5
штиль 0
{3}
50 км 3/0
[Ac lent Ci fib]
-0.2 -4.4 73 -1 -1 по сезону 1022.0 974.4
штиль 0
{1}
50 км 3/0
[Ac lent Ci sp]
-2.0 -4.3 84 -3 -3 по сезону 1021.8 974.0 +8.3 9
З 3
{3}
50 км 1/0
[Ac lent Ci sp]
-3.2 -5.4 85 -8 -8 прохладно 1022.8 974.7
штиль 0
{2}
50 км 1/0
[Ac lent Ci sp]
-3.7 -5.2 89 -5 -5 по сезону 1023.0 974.8
С 1
{4}
50 км 1/0
[Ci fib]
-4.8 -6.3 89 -7 -7 прохладно 1023.7 975.3
ЮЗ 1
{3}
50 км ясно -4.8 -6.3 89 -7 -7 по сезону 1023.5 975.1
СЗ 2
{4}
50 км ясно -6.7 -8.2 89 -11 -11 прохладно 1023.6 974.8
СЗ 1
{2}
50 км ясно -5.6 -6.5 93 -8 -8 прохладно 1023.4 974.8
З 1
{3}
50 км ясно -5.7 -6.8 92 -8 -8 по сезону 1023.4 974.9
СЗ 2
{2}
50 км ясно -6.8 -8.0 91 -11 -11 прохладно 1023.2 974.4
СЗ 1
{2}
н/о ясно -8.1 -9.6 89 -11 -11 холодно 1023.1 974.1
штиль 0
{1}
50 км ясно -7.2 -7.9 95 -8 -8 по сезону 1023.3 974.4
СЗ 1
{2}
50 км ясно -7.5 -8.2 95 -10 -10 по сезону 1023.4 974.5
З 1
{2}
50 км ясно -7.7 -8.4 95 -10 -10 прохладно 1023.6 974.6 -8.9 9
ЮЗ 1
{2}
50 км ясно -8.1 -9.0 93 -11 -10 прохладно 1023.7 974.6
штиль 0
{2}
50 км ясно -6.1 -7.3 91 -7 -5 по сезону 1023.5 974.9
штиль 0
{2}
50 км ясно -3.4 -5.2 87 -4 -0 по сезону 1022.9 974.7
В 1
{2}
50 км ясно -0.2 -4.3 74 -2 +3 по сезону 1022.3 974.8
В 1
{1}
50 км 1/0
[Ci fib]
+3.6 -4.8 54 +3 +8 тепло 1021.0 974.1
В 2
{3}
н/о ясно +4.9 -3.1 56 +3 +7 по сезону 1019.7 973.1
ЮВ 1
{2}
50 км 3/0
[Ci fib]
+7.5 -2.2 50 +7 +11 тепло 1018.2 972.1
В 2
{3}
50 км 1/0
[Ci fib]
+5.8 -1.6 59 +4 +5 тепло 1018.1 971.8
ЮВ 1
{2}
50 км 1/0
[Ci fib]
+6.3 0.0 64 +6 +6 тепло 1018.2 971.9
штиль 0
{2}
50 км 1/0
[Ac trans Ci fib]
+1.9 -1.3 79 +1 +1 по сезону 1019.3 972.2
штиль 0
{2}
40 км 1/1 1500 м
[Cu hum Ac trans Ci fib]
-0.9 -2.8 87 -2 -2 по сезону 1020.3 972.7
З 2
{4}
40 км 1/0
[Ac trans Ci fib]
-2.4 -4.3 87 -6 -6 прохладно 1020.6 972.7 +8.5 9
Ю 1
{3}
30 км 1/0
[Ac trans Ci fib]
-2.8 -4.2 90 -5 -5 по сезону 1020.8 972.9
СЗ 1
{5}
30 км туман поземный 4/0
[Ac trans Ci sp]
-1.7 -3.4 88 -4 -4 по сезону 1021.0 973.3
ЮВ 1
{1}
30 км 4/0
[Ac trans Ci sp]
-3.1 -3.9 94 -6 -6 прохладно 1021.5 973.4
штиль 0
{2}
30 км 3/0
[Ac trans Ci sp]
-3.6 -4.3 95 -5 -5 по сезону 1021.6 973.5
В 1
{2}
30 км 3/0
[Ac trans Ci sp]
-4.8 -5.6 94 -7 -7 по сезону 1021.8 973.4
С 1
{2}
30 км 1/0
[Ci fib]
-5.3 -5.7 97 -8 -8 прохладно 1021.4 973.0
З 1
{2}
30 км 3/0
[Ci fib]
-5.4 -5.9 96 -8 -8 по сезону 1021.5 973.1
СЗ 1
{3}
30 км 3/0
[Ci fib]
-6.6 -7.3 95 -9 -9 по сезону 1021.4 972.7
штиль 0
{2}
20 км 1/0
[Ac trans Ci fib]
-6.2 -6.7 96 -7 -7 по сезону 1021.1 972.5
З 1
{2}
1500 м дымка 3/0
[Ac trans]
-5.9 -6.4 96 -8 -8 по сезону 1021.1 972.6
З 1
{3}
5000 м туман поземный 3/1 90 м
[St Ac trans]
-6.6 -7.4 94 -9 -9 по сезону 1021.2 972.6
С 1
{2}
7000 м дымка 4/1 90 м
[St Ci]
-7.4 -8.1 95 -10 -10 прохладно 1021.6 972.8 -8.0 9
СЗ 1
{3}
7000 м дымка 6/1 90 м
[St Cs]
-6.9 -7.7 94 -9 -9 по сезону 1021.8 973.1
СЗ 2
{4}
10 км 8/1 90 м
[Cu hum Ac lent Cs]
-4.4 -5.1 95 -9 -8 по сезону 1021.5 973.3
ЮВ 1
{2}
30 км 6/1 900 м
[Cu hum Ac trans Ci sp]
-1.3 -2.4 92 -4 -1 по сезону 1021.0 973.4
В 2
{5}
20 км 8/1 1000 м
[Cu Sc Ac und Ci fib]
+1.3 -1.4 82 -2 0 по сезону 1021.5 974.2
ЮВ 2
{4}
20 км 8/1 1000 м
[Cu Sc Ac trans Cs]
+5.7 -1.0 62 +4 +6 тепло 1020.7 974.2
ЮВ 2
{3}
20 км 3/3 1200 м
[Cu Sc Ac trans Ci fib]
+7.0 0.0 61 +5 +8 по сезону 1019.7 973.4
ЮВ 2
{4}
20 км 6/1 1200 м
[Cu Sc Ac trans Ci fib]
+7.8 -0.6 55 +6 +8 тепло 1019.3 973.2
В 1
{4}
15 км 5/1 1500 м
[Cu Sc Ac trans Cs]
+7.2 -1.0 56 +7 +8 тепло 1019.7 973.5
В 1
{3}
15 км 6/1 1500 м
[Cu Sc Ac trans Cs]
+6.2 +0.1 65 +5 +6 тепло 1020.0 973.6
штиль 0
{2}
20 км 4/1 1500 м
[Cu Sc Cs]
+2.5 -0.9 78 +2 +2 по сезону 1021.1 974.1
Ю 1
{2}
20 км 6/1 1500 м
[Cu Sc Cs]
+0.7 -1.4 86 -1 -1 по сезону 1022.1 974.7
штиль 0
{2}
20 км 8/1 1500 м
[Cu Sc Ac trans Cs]
-0.3 -1.7 90 -2 -2 по сезону 1023.3 975.6 +8.4 7
З 2
{2}
15 км 8/1 1500 м
[Sc Ac trans Cs]
-0.6 -1.9 91 -4 -4 по сезону 1024.3 976.6
штиль 0
{1}
15 км 8/1 1500 м
[Sc Ac trans Cs]
-0.7 -1.8 92 -2 -2 по сезону 1025.1 977.3
штиль 0
{1}
10 км 9/4 1500 м
[Sc Cs]
+0.8 -1.4 85 -0 -0 по сезону 1026.3 978.7
СЗ 1
{2}
10 км 9/4 1500 м
[Sc Ac As Cs]
+1.6 -0.6 85 -0 -0 по сезону 1027.3 979.8
З 1
{2}
10 км 10/10 900 м
[Sc Ac As]
-0.2 -1.2 93 -2 -2 по сезону 1028.2 980.4
З 1
{2}
10 км 10/10 600 м
[Sc]
-1.1 -1.8 95 -3 -3 по сезону 1028.6 980.6
СЗ 1
{2}
10 км 10/10 600 м
[Sc]
-0.6 -1.4 94 -3 -3 по сезону 1028.6 980.7
В 1
{1}
10 км 10/10 600 м
[Sc]
-0.1 -0.8 95 -2 -2 тепло 1028.4 980.6
З 2
{2}
10 км 10/10 600 м
[Sc]
-0.5 -1.2 95 -4 -4 по сезону 1028.6 980.7
З 2
{2}
10 км 9/9 600 м
[Sc]
-1.7 -2.1 97 -6 -6 по сезону 1029.0 980.9
ЮЗ 1
{3}
15 км 8/1 1000 м
[Sc Ac trans]
-1.7 -2.1 97 -4 -4 по сезону 1028.4 980.3
ЮЗ 1
{2}
15 км 8/1 1000 м
[Sc Ac trans Ci fib]
-2.7 -3.1 97 -5 -5 по сезону 1028.5 980.2 -3.0 7
З 1
{2}
15 км 6/1 2000 м
[Sc Ac trans Ci fib]
-2.0 -2.3 98 -4 -4 по сезону 1028.6 980.4
В 2
{3}
15 км 4/1 30 м
[St Ac trans Ci fib]
-1.3 -1.6 98 -5 -4 по сезону 1028.4 980.4
В 2
{3}
15 км 4/1 90 м
[St Ac trans Ci fib]
-0.2 -1.2 93 -4 -2 по сезону 1027.9 980.1
С 1
{3}
30 км 3/0
[Ci fib]
+1.4 -0.4 88 -0 +4 по сезону 1027.4 979.9
СВ 1
{3}
30 км 4/0
[Ci fib]
+3.9 -0.3 74 +3 +8 тепло 1025.7 978.7
В 2
{3}
30 км 6/0
[Ac trans Ci fib]
+5.5 -0.3 66 +3 +7 по сезону 1024.4 977.7
С 1
{2}
30 км 6/0
[Ac lent Ci fib]
+5.6 -0.4 65 +5 +7 по сезону 1022.9 976.3
ЮЗ 1
{3}
30 км 8/0
[Ac lent Ci fib]
+7.4 +1.1 64 +7 +8 тепло 1021.7 975.4
З 1
{5}
30 км 8/0
[Ac lent Ci fib]
+8.2 +0.2 57 +8 +8 тепло 1020.8 974.7
З 2
{3}
30 км 8/0
[Ac lent Ci fib]
+3.0 -0.1 80 0 0 по сезону 1020.5 973.6
З 2
{5}
30 км 8/0
[Ac lent Cs]
+1.5 -0.6 86 -2 -2 по сезону 1019.7 972.6
штиль 0
{2}
30 км 8/0
[Ac lent Cs]
+0.7 -0.9 89 -1 -1 по сезону 1020.3 973.0 +8.7
штиль 0
{3}
30 км 9/0
[Ac lent Cs]
+1.8 -0.8 83 +1 +1 по сезону 1020.7 973.6
штиль 0
{3}
30 км 9/1 1500 м
[Cu Sc Ac trans Cs]
+0.2 -1.2 90 -1 -1 по сезону 1020.6 973.2
З 2
{4}
30 км 8/1 1500 м
[Cu Sc Ac trans Cs]
-1.1 -2.1 93 -5 -5 по сезону 1020.4 972.8
штиль 0
{3}
30 км 8/1 1500 м
[Cu Sc Cs]
-1.2 -1.9 95 -3 -3 по сезону 1019.8 972.2
С 1
{3}
30 км 5/3 1500 м
[Cu Sc Ac trans Ci sp]
-2.2 -3.0 94 -5 -5 по сезону 1020.2 972.4
СЗ 1
{2}
30 км 4/4 2000 м
[Cu Sc Ac lent Ci fib]
-1.3 -2.0 95 -4 -4 по сезону 1019.9 972.3
ЮВ 1
{3}
30 км 4/3 2000 м
[Cu Sc Ac lent Ci fib]
-2.4 -2.8 97 -5 -5 по сезону 1020.3 972.5
З 1
{4}
30 км 3/1 2000 м
[Cu Sc Ac lent Ci fib]
-2.6 -2.9 98 -5 -5 по сезону 1020.5 972.6
З 1
{5}
30 км 3/1 1500 м
[Cu Sc Ac lent Ci fib]
-3.1 -3.5 97 -6 -6 по сезону 1020.5 972.5
СЗ 9
{15}
50 км 3/1 1500 м
[Cu Sc Ci fib]
+6.7 -1.2 57 +2 +2 тепло 1018.4 972.2
СЗ 10
{15}
50 км 3/1 1500 м
[Cu Sc Ci fib]
+7.2 -2.5 50 +2 +2 тепло 1017.5 971.4
СЗ 10
{18}
50 км осадки на расстоянии 3/1 1000 м
[Cu med, cong Ci fib]
+8.5 -3.6 42 +4 +4 тепло 1017.9 971.9 -4.0 7
СЗ 9
{16}
50 км 1/1 1500 м
[Cu med, cong Ci fib]
+8.7 -4.8 38 +5 +5 тепло 1018.2 972.2
С 8
{15}
50 км 1/1 1500 м
[Sc diur, vesp Ci fib]
+7.9 -4.8 40 +4 +4 тепло 1020.2 974.0
СЗ 8
{17}
50 км н/о +8.5 -8.0 30 +5 +5 тепло 1020.8 974.7
С 6
{20}
50 км 3/3 1500 м
[Cu hum Ci fib]
+8.4 -6.9 33 +5 +6 тепло 1021.5 975.3
8
{14}
50 км 3/3 1500 м
[Cu hum]
+8.1 -6.8 34 +4 +5 тепло 1021.9 975.7
СЗ 5
{14}
н/о 4/0 2000 м +8.5 -7.2 32 +6 +7 тепло 1023.0 976.8
С 9
{16}
30 км осадки на расстоянии 4/4 1300 м
[Cu Sc]
+7.2 -5.4 40 +3 +3 по сезону 1024.0 977.6
СЗ 7
{14}
30 км осадки на расстоянии 4/4 1000 м
[Cu Sc Ci fib]
+7.1 -5.5 40 +3 +3 по сезону 1025.2 978.7
С 6
{10}
30 км осадки на расстоянии 5/4 1500 м
[Cu Sc Ac trans Ci fib]
+7.4 -6.6 36 +4 +4 по сезону 1026.2 979.7
СЗ 8
{14}
30 км осадки на расстоянии 5/4 400 м
[Cu Sc Ac trans Ci fib]
+6.1 -6.1 41 +1 +1 по сезону 1027.7 980.9
СЗ 6
{12}
30 км осадки на расстоянии 4/4 1000 м
[Cu Sc Ac trans Ci fib]
+5.9 -6.9 39 +2 +2 по сезону 1028.5 981.7
Ю 3
{7}
30 км 4/4 1080 м
[Cu Sc Ac trans]
+4.1 -6.2 47 +1 +1 по сезону 1030.0 982.8 +9.4 4
Ю 3
{5}
30 км 4/4 2000 м
[Sc]
+3.0 -5.6 53 -0 -0 по сезону 1031.2 983.7
Ю 3
{6}
30 км 4/4 2000 м
[Sc]
+2.5 -6.3 52 -1 -1 по сезону 1031.5 983.9
С 1
{3}
50 км 4/4 2000 м
[Sc]
+1.2 -6.3 57 0 0 по сезону 1032.5 984.7
Ю 4
{7}
50 км 4/4 2000 м
[Sc]
+0.8 -7.2 55 -4 -4 по сезону 1033.0 985.1
штиль 0
{4}
50 км 4/4 2000 м
[Sc]
-0.6 -6.8 63 -1 -1 по сезону 1034.2 986.0
ЮЗ 1
{2}
50 км 4/4 2000 м
[Sc]
-2.3 -6.3 74 -4 -4 по сезону 1034.8 986.3
СЗ 1
{1}
50 км 4/4 2000 м
[Sc]
-3.1 -6.4 78 -5 -5 по сезону 1035.1 986.4
Местоположение метеостанции Любляна аэропорт (Словения): широта 46.22 долгота 14.48 высота над уровнем моря 385 м.
В архиве по умолчанию представлена погода в Любляна аэропорту за последнюю неделю. Архивные данные за месяц целиком и за предыдущие месяцы, начиная с января 2011 года, Вы можете получить, выбрав интересующий диапазон дат из раскрывающегося списка и нажав кнопку "Найти!".
*Определитесь, кто Вы:
Внимание! Время в таблицах - всемирное. Для получения местного времени необходимо прибавить поправку, которая равна 1 ч.
Смотрите также архив погоды в соседних городах и на ближайших метеорологических станциях:
Партнеры нашего сайта:      
Пояснения к столбцам:
  • Ветер - указаны скорость ветра в м/с - средняя за 10 мин, порывы в срок и между сроками (в фигурных скобках) и направление, откуда дует ветер: С - северный,
  • СВ - северо-восточный, В - восточный, ЮВ - юго-восточный, Ю - южный, ЮЗ - юго-западный, З - западный, СЗ - северо-западный.
  • Видимость - горизонтальная дальность видимости в метрах или километрах. При видимости от 1 до 10 км при отсутствии осадков обычно наблюдается дымка, при ухудшении видимости до 1 км и менее - туман. В сухую погоду видимость может ухудшаться дымом, пылью или мглою.
  • Явления - указаны атмосферные явления, наблюдавшиеся в срок или в последний час перед сроком; фигурными скобками обозначены явления, наблюдавшиеся между сроками (за 1-3 часа до срока); квадратными скобками обозначены град или гололедные отложения с указанием их диаметра в мм.
  • Облачность - указаны через наклонную черту общая и нижняя облачность в баллах и высота нижней границы облаков в метрах; квадратными скобками обозначены формы облаков: Ci - перистые, Cs - перисто-слоистые, Cc - перисто-кучевые, Ac - высококучевые, As - высокослоистые, Sc - слоисто-кучевые, Ns - слоисто-дождевые, Cu - кучевые, Cb - кучево-дождевые. Подробнее классификацию облаков см. в Атласе облаков (PDF).
  • T - Температура воздуха - температура, измеренная на высоте 2 м над землей.
  • Td - Температура точки росы - температура, при понижении до которой содержащийся в воздухе водяной пар достигнет насыщения.
  • f - Относительная влажность воздуха - влажноcть воздуха, измеренная на высоте 2 м над землей.
  • Te - Эффективная температура - температура, которую ощущает одетый по сезону человек в тени. Характеристика душности погоды. При расчете учитывается влияние влажности воздуха и скорости ветра на теплоощущения человека.
  • Tes - Эффективная температура на солнце - температура, которую ощущает человек, с поправкой на солнечный нагрев. Характеристика знойности погоды. Зависит от высоты солнца над горизонтом, облачности и скорости ветра. Ночью, в пасмурную погоду, а также при ветре 12 м/с и более поправка равна нулю.
  • P - Атмосферное давление - приведенное к уровню моря атмосферное давление.
  • Po - Атмосферное давление - измеренное на уровне метеостанции атмосферное давление.
  • Tmin - Минимальная температура - минимум температуры воздуха на высоте 2 м над землей.
  • Tmax - Максимальная температура - максимум температуры воздуха на высоте 2 м над землей.
  • R - Количество осадков - Количество выпавших осадков за период времени, мм. При наведении курсора мыши на число - период времени, за который выпало указанное количество осадков.
  • R24 - Количество осадков - Количество выпавших осадков за 24 часа, мм.
  • S - Снежный покров - Высота снежного покрова, см. При наведении курсора мыши на число - состояние снежного покрова и степень покрытия местности в баллах.